Location: ??????
(38.3184°N, 23.6932°E)
Time: 02:18:31
(UTC+00:00)

Tiangong - Pass Details

Date: 16 October 2021
Orbit: 380 x 384 km, 41.5° (Epoch: 04 December)

Event Time Altitude Azimuth Distance (km) Brightness Sun altitude
Rises 16:38:00 0° 212° (SSW) 2,260 5.5 -11.0°
Reaches altitude 10° 16:40:29 10° 192° (SSW) 1,407 4.1 -11.5°
Maximum altitude 16:42:45 18° 146° (SSE) 1,027 2.9 -11.9°
Enters shadow 16:43:42 16° 123° (ESE) 1,103 2.9 -12.1°
